Hourly Data Report for September 16, 2010

IQALUIT CLIMATE
NUNAVUT

63°44'50.000" N
68°32'40.000" W
33.50 m
2402592
71321
XFB

Download Data

Hourly Data (September 2010)
Hourly Data Report for September 16, 2010
TIME
LST
Temp Definition
°C
Dew Point Definition
°C
Rel Hum Definition
%
Precip. Amount Definition
mm

Wind Dir Definition
10's deg

Wind Spd Definition
km/h
Visibility Definition
km
Stn Press Definition
kPa
Hmdx Definition


Wind Chill Definition


Weather Definition


00:00 5.5 5.5 100   14 6   101.02     LegendNANA
01:00 5.9 5.9 100   13 4   101.01     LegendNANA
02:00 5.3 5.3 100   23 6   101.02     LegendNANA
03:00 5.2 5.2 100     0   101.04     LegendNANA
04:00 5.0 5.0 100     0   101.05     LegendNANA
05:00 4.9 4.9 100     0   101.09     LegendNANA
06:00 5.6 5.6 100     0   101.09     LegendNANA
07:00 6.0 6.0 100   18 2   101.12     LegendNANA
08:00 6.3 6.3 100   17 4   101.12     LegendNANA
09:00 5.9 5.9 100   15 6   101.12     LegendNANA
10:00 5.9 5.9 100   15 6   101.13     LegendNANA
11:00 6.1 6.1 100   13 7   101.13     LegendNANA
12:00 6.9 5.8 93   14 7   101.11     LegendNANA
13:00 6.9 5.3 90   14 9   101.14     LegendNANA
14:00 7.0 5.1 88   13 7   101.15     LegendNANA
15:00 7.8 5.6 86   16 9   101.17     LegendNANA
16:00 6.8 5.2 90   16 11   101.19     LegendNANA
17:00 6.2 5.1 93   13 9   101.22     LegendNANA
18:00 6.0 4.9 93   14 9   101.25     LegendNANA
19:00 5.3 4.5 95   16 2   101.26     LegendNANA
20:00 4.1 3.8 98   25 2   101.27     LegendNANA
21:00 3.3 3.3 100   31 4   101.28     LegendNANA
22:00 2.3 2.3 100   36 6   101.27     LegendNANA
23:00 2.8 2.8 100     0   101.27     LegendNANA

Notes on Data Quality.

Legend

  • E = Estimated
  • M = Missing
  • NA = Not Available*
  • [empty] = Indicates an unobserved value
Date modified: